Flock 4h-12

operational
NORAD ID: 66715 Int'l Des: 2025-276 Owner: PLAN Country: US Constellation: planet
LEOCIRCULARRETROGRADESSO

Flock 4h-12について

説明を読み込み中...

リアルタイム位置

3D地球を読み込み中...

次回通過

高度履歴

Altitude vs Time

uPlot chart will show altitude changes over time

軌道要素

1 66715U 25276BB 26073.19035644 .00006844 00000-0 32735-3 0 9992
2 66715 97.4257 148.4312 0000783 328.9810 31.1378 15.19305223 16318
Epoch: Mar 14, 2026 • Age: 10 hours

現在のステータス

高度 515.9 km
速度 7.61 km/s
衛星直下点 50.14°N, 113.57°E
打ち上げ日 Nov 28, 2025
運用期間 0.2 years
タイプ earth observation

技術仕様

分類 Payload
質量 5.70 kg
乾燥質量 5.70 kg
総質量 5.70 kg
長さ 0.30 m
直径 0.10 m
スパン 0.30 m
形状 Box+2 pan
製造者 PLAN
バスタイプ Cubesat 3U
フェーズステータス In Orbit
所有者/国 PLAN/US

大規模コンステレーション

Loading constellations...